Погода в Кизляре

Погода в Кизляре : погода сейчас, прогноз погоды и архив. Всё, что Вы хотите узнать о погоде в Кизляре!

Поиск расширенной информации на нашем сайте:

Другие новости

Новости СМИ2

Главная страница сайта

Новости сайта

02.10.2013

Напоминаем, что на нашем новом сайте вы можете получить высокодетализированные прогнозы погоды по пунктам России, СНГ и мира (включающие важные для авиации метеовеличины, такие как направление и скорость ветра, видимость, явления погоды, количество и форма облачности, нижняя и верхняя граница облачности), а также ознакомиться с разнообразными материалами по авиационной метеорологии и подборкой полезных ссылок на эту тему.

Сайт Метеоцентр.Азия посвящён разработке технологий оптимизации авиаметеорологического обслуживания, включая проектирование и перспективное создание нескольких автоматизированных авиаметеорологических систем:
- система выпуска высокодетальных прогностических карт явлений погоды для нижнего воздушного пространства по России и ближнему зарубежью;
- система верификации прогнозов TAF (выпускаемых синоптиками официальных АМСГ РФ и ближнего зарубежья) и AUTOTAF (выпускаемых сайтом Метеоцентр.Азия) - выявление ошибок, онлайн-сопоставление с фактической погодой METAR, автоматическое внесение коррективов в прогнозы при резком отклонении фактической погоды от прогноза, подсчёт оправдываемости прогнозов по элементам и в целом;
- система обработки, анализа и отображения авиаметеорологической информации для применения провайдерами метеорологической информации.

Рекомендуем: Школа трейдинга на nyse bcs.ru/broker/global/bcs-laser.asp.

Погода в Кизляре - сегодня

Время (UTC), дата Ветер
(°,м/с) 
Видим.   Явления Облачность Т
(°С)
Тd
(°С)
f(%) Тe
(°С)
Pmin
(гПа)
dP
(гПа)
Po
(мм)
O2
(г/м3)
Тmin Tmax R s Состояние
почвы
21 21.03.17 260 (З) 5{10}  10 км    6/6 600 м средняя 
[Sc|Ac trans]
+5.9 +0.1 66 +4  1013  0.4  760  300           
00 22.03.17 260 (З) 7-11{13}  10 км    4/4 600 м средняя 
[Sc|Ac trans]
+5 +0.1 71 +2  1013.7  0.7  761  301           
03 22.03.17 250 (З) 7-12{12}  10 км    8/8 600 м средняя 
[Sc|Ac trans]
+5 -0.3 69 +2  1014.7  0.7  761  301  +4.1         
06 22.03.17 250 (З) 7-13{13}  10 км    10/10 600 м 
[Sc]
+7 -0.4 59 +5  1015.3  0.6  762  299           
12 22.03.17 260 (З) 5{15}  10 км  слаб. дождь  10/10 600 м 
[Frnb|Ns]
+6.1 +2.7 79 +4  1015.4  -0.2  762  300           
15 22.03.17 280 (З) 3{12}  4000 м  слаб. дождь  10/10 600 м 
[Frnb|Ns]
+3 +2.4 96 +2  1017.3  1.9  763  304    +8.6     
18 22.03.17 260 (З) 4000 м  слаб. дождь  10/10 600 м 
[Frnb|Ns]
+2.3 +1.8 96 +2  1018.9  1.9  765  305           
21 22.03.17 310 (СЗ) 4000 м  слаб. дождь  10/10 600 м 
[Frnb|Ns]
+1.4 +1.1 98 1019.2  0.3  765  306           
00 23.03.17 320 (СЗ) 4000 м  слаб. дождь  10/10 600 м 
[Frnb|Ns]
+0.7 +0.6 99 1019.5  0.3  765  307           
03 23.03.17 280 (З) 4000 м  слаб. снег{дождь}  10/10 600 м 
[Frnb|Ns]
+0.1 +0.1 100 +1  1020.6  1.1  766  308  +0.1       
06 23.03.17 260 (З) 4000 м  слаб. дождь{снег}  10/10 600 м 
[Frnb|Ns]
+0.5 +0.5 100 +1  1022.3  1.6  767  308           
09 23.03.17 300 (СЗ) 4000 м  дымка{дождь}  10/10 600 м 
[Sc]
+1.8 +1 94 1023  0.8  768  307           
12 23.03.17 310 (СЗ) 10 км  {дождь}  10/10 600 м 
[Sc]
+2.8 +0.1 82 +1  1024  768  306           
15 23.03.17 290 (З) 10 км    10/10 600 м 
[Sc]
+3 -0.2 79 +2  1025.1  1.1  769  307    +3.1     
18 23.03.17 280 (З) 10 км    10/10 600 м 
[Sc]
+2.7 +0.3 84 +3  1026.4  1.2  770  307           
21 23.03.17 290 (З) 10 км    10/10 600 м 
[Sc]
+2.6 +0.6 87 +3  1026.7  1.2  770  307           
00 24.03.17 270 (З) 4000 м  дымка  10/10 600 м 
[Sc]
+2.4 +1.4 93 +2  1026.8  0.2  771  308           
03 24.03.17 220 (ЮЗ) 4000 м  дымка  10/10 600 м 
[Sc]
+2.2 +1.4 94 +3  1027.7  0.9  771  308  +2.2         
06 24.03.17 310 (СЗ) 10 км    9/9 600 м средняя 
[Sc|Ac trans]
+5.4 +1.7 77 +6  1028.5  0.8  772  305  +2.2         
09 24.03.17 240 (ЮЗ) 10 км    8/8 600 м средняя 
[Sc|Ac trans]
+8.2 +0.4 58 +9  1027.5  -1  771  302           
12 24.03.17 330 (СЗ) 10 км    8/8 600 м средняя 
[Sc|Ac trans]
+9.9 +0.6 52 +11  1026.1  -1.4  770  299           
15 24.03.17 140 (ЮВ) 10 км    8/8 600 м средняя 
[Sc|Ac trans]
+7.3 +2.3 71 +7  1025.8  -0.3  770  302    +10.5       
18 24.03.17 130 (ЮВ) 10 км    4/4 600 м средняя 
[Sc|Ac trans]
+1.6 -0.1 88 +1  1025.8  0.1  770  308           
21 24.03.17 110 (В) 4000 м  дымка  ясно 
+0.4 +0.1 98 1023.7  -2.1  768  309           
00 25.03.17 100 (В) 10 км  дымка  ясно 
+0.6 +0.5 99 -1  1021.8  -1.9  767  308           
Время (UTC), дата Ветер
(°,м/с) 
Видим.   Явления Облачность Т
(°С)
Тd
(°С)
f(%) Тe
(°С)
Pmin
(гПа)
dP
(гПа)
Po
(мм)
O2
(г/м3)
Тmin Tmax R s Состояние
почвы

Для получения пояснительной информации подведите курсор к названию столбца.

ПОГОДА в Кизляре - архив

Всё, что Вы хотите узнать о погоде в Кизляре - удобно и подробно!

Выберите нужную дату (начиная с 1 января 2015* года) и нажмите кнопку "Найти".
Будут отображены архивные сводки погоды по пункту Кизляр, начиная с указанной даты.


Отображать данные в формате CSV (для использования в таблицах Excel)


Внимание! Наш архив погоды предназначен исключительно для личного некоммерческого использования в познавательных целях. Если Вам необходимы официальные справки о состоянии погоды (для производственных, юридических, коммерческих и т.п. целей), обращайтесь в органы Росгидромета.

*Примечание: данная дата относится к архиву по метеостанциям СССР (Россия, СНГ, Балтия).
Архив по метеостанциям Зарубежной Европы и Азии (кроме Китая) хранится 10 дней, по другим регионам земного шара (Китай, Африка, Америка, Австралия, Океания) - 1 день.

Кизляр - район местоположения метеостанции


Название, широта, долгота, высота метеостанции:
Кизляр 43.8°ш. 46.7°д. -5 м над ур. моря [Российская Федерация]

Дополнительная информация

В oтличие oт бoльшинства пoгoдных сайтoв мы публикуем пoдрoбную метеoинфoрмацию в детальнoм прoфессиoнальнoм фoрмате.

Характеристики температуры и влажнoсти вoздуха измеряются на высoте 2 м в тени вдали oт зданий и деревьев.
Скoрoсть ветра измеряется на высoте 10 м (на урoвне рoста челoвека скoрoсть ветра ниже в 1.5-2 раза). Если метеoстанция нахoдится в гoрoде или в лесу, тo скoрoсть ветра занижена на 2-4 м/с пo сравнению с oткрытым местoм. Скoрoсть ветра над акватoриями крупных рек и oзёр, а также на вершинах хoлмoв на 2-5 м/с выше, чем в oбычных услoвиях.
Атмoсфернoе давление в разных тoчках местнoсти мoжет значительнo oтличаться oт давления на метеoстанции, в зависимoсти oт услoвий рельефа (при пoдъёме на 10 м давление пoнижается примернo на 1 мм рт.ст.).